Regional Weather Roundup
Issued by NWS

Home | Current Version | Previous Version | Graphics & Text | Print | Product List | Glossary On
Versions: 1 2 3 4 5 6 7 8 9 10 11 12 13 14 15 16 17 18 19 20 21 22 23 24 25 26 27 28 29 30 31 32 33 34 35 36 37 38 39 40 41 42 43 44 45 46 47 48 49 50
000
ASUS43 KDTX 240501
RWRMI
MICHIGAN HOURLY REGIONAL WEATHER ROUNDUP
NATIONAL WEATHER SERVICE DETROIT/PONTIAC MI
1200 AM EST FRI NOV 24 2017

NOTE: "FAIR" INDICATES FEW OR NO CLOUDS BELOW 12,000 FEET WITH NO
SIGNIFICANT WEATHER AND/OR OBSTRUCTION TO VISIBILITY.

MIZ047>049-052>055-059>063-066>070-074>076-081>083-240600-
SOUTHEAST LOWER MICHIGAN

CITY           SKY/WX    TMP DP  RH WIND       PRES   REMARKS
ADRIAN         CLEAR     29  24  82 SW3       29.96F
ALMA           CLOUDY    33  26  76 SW6       29.91R WCI  27
ANN ARBOR      CLEAR     29  25  85 S5        29.94F WCI  24
BAD AXE        CLOUDY    31  23  72 SW6       29.90S WCI  25
CARO           CLOUDY    30  22  74 CALM      29.90S
DETROIT CITY   CLOUDY    37  25  61 SW9       29.94F WCI  30
DETROIT        PTCLDY    33  26  75 S7        29.96F WCI  27
FLINT          CLOUDY    34  22  61 S7        29.91F WCI  28
GROSSE ILE     CLOUDY    37  28  69 SW5       29.95F WCI  34
HILLSDALE      CLEAR     32  21  64 S7        29.92F WCI  26
HOWELL         CLEAR     33  25  71 S6        29.90F WCI  28

CITY           SKY/WX    TMP DP  RH WIND       PRES   REMARKS
JACKSON        CLEAR     33  22  63 S8        29.91F WCI  26
LAMBERTVILLE   CLEAR     35  27  70 S6        29.97F WCI  30
LANSING        CLOUDY    34  24  67 S8        29.90F WCI  27
LAPEER         FAIR      32  24  71 S5        29.91S WCI  27
MASON          CLOUDY    35  25  64 S5        29.90F WCI  31
MONROE         MOCLDY    35  27  70 S6        29.95F WCI  30
MT. CLEMENS    CLOUDY    39  25  58 SW9       29.91F WCI  32
PONTIAC        PTCLDY    35  24  64 S6        29.90F WCI  30
PORT HOPE        N/A     35  22  58 SW8       29.87F WCI  29
PORT HURON     CLEAR     34  23  64 CALM      29.93F
TRI CITIES     PTCLDY    34  25  69 SW7       29.91S WCI  28
MIDLAND        FAIR      31  26  84 CALM      29.89R
TROY           PTCLDY    38  25  59 SW6       29.95F WCI  33
SAGINAW HB     CLOUDY    34  27  75 S6        29.89S WCI  29
$$
MIZ043>046-050>051-056>058-064>065-071>073-077>080-240600-
SOUTHWEST LOWER MICHIGAN

CITY           SKY/WX    TMP DP  RH WIND       PRES   REMARKS
BATTLE CREEK   CLOUDY    34  24  67 SW10      29.91F WCI  26
BENTON HARBOR  CLEAR     36  25  64 S7        29.92F WCI  30
BIG RAPIDS     CLOUDY    27  25  94 SE7       29.85F WCI  19
COLDWATER      CLOUDY    35  22  60 SW7       29.93F WCI  29
FREMONT        FAIR      30  28  91 SE5       29.85F WCI  25
HOLLAND        CLEAR     34  26  72 S7        29.90S WCI  28
GRAND RAPIDS   CLOUDY    34  26  72 SW9       29.89S WCI  27
IONIA          FAIR      33  25  72 SW7       29.89R WCI  27
KALAMAZOO      PTCLDY    35  24  64 S10       29.91F WCI  27
LUDINGTON      CLEAR     31  26  81 CALM      29.84R
MARSHALL       CLOUDY    34  23  63 S7        29.91S WCI  28
MOUNT PLEASANT CLOUDY    32  27  81 CALM      29.88R
MUSKEGON       CLEAR     30  25  81 SE8       29.87F WCI  22
SOUTH HAVEN    CLEAR     36  27  68 S5        29.91F WCI  32
$$
MIZ016>042-240600-
NORTHERN LOWER MICHIGAN

CITY           SKY/WX    TMP DP  RH WIND       PRES   REMARKS
ALPENA         CLEAR     27  24  89 CALM      29.85S
BEAVER ISLAND  CLOUDY    40  33  74 S9        29.74F WCI  35
BELLAIRE       CLOUDY    33  29  87 S3        29.81F
CADILLAC       CLOUDY    29  26  88 S5        29.81F WCI  23
CHARLEVOIX     CLOUDY    35  29  78 S7        29.81F WCI  29
FRANKFORT      CLEAR     34  28  79 SE3       29.81S
GAYLORD        CLOUDY    30  23  75 SW9       29.80F WCI  22
GRAYLING       CLOUDY    27  22  83 CALM      29.84S
HARBOR SPRINGS CLOUDY    33  26  77 S5        29.79F WCI  28
HOUGHTON LAKE  PTCLDY    31  26  82 SW6       29.84F WCI  25
MANISTEE       CLEAR     29  25  85 VRB3      29.82F
OSCODA         CLEAR     26  22  84 SW5       29.87R WCI  21
PELLSTON       CLOUDY    35  27  72 S10       29.78F WCI  27
ROGERS CITY    CLEAR     32  26  77 SW7       29.83F WCI  26
TRAVERSE CITY  PTCLDY    33  26  75 VRB6      29.79F WCI  28
$$
MIZ007>008-015-240600-
EASTERN UPPER MICHIGAN

CITY           SKY/WX    TMP DP  RH WIND       PRES   REMARKS
KINROSS        CLOUDY    30  25  81 S6        29.75F WCI  24
MACKINAC ISLAN CLOUDY    36  28  73 S13G22    29.76F WCI  27
NEWBERRY       CLOUDY    35  29  81 S10       29.70F WCI  27
S. S. MARIE    CLOUDY    33  24  69 S5        29.75F WCI  29
MUNISING         N/A     36  28  73 S7        29.68F WCI  30
$$
MIZ004>006-011>014-085-240600-
CENTRAL UPPER MICHIGAN

CITY           SKY/WX    TMP DP  RH WIND       PRES   REMARKS
MANISTIQUE     CLOUDY    39  24  55 SW14G23   29.71F WCI  30
ESCANABA       LGT RAIN  39  28  64 SW13G18   29.72F WCI  31
MENOMINEE      LGT RAIN  37  26  64 SW10      29.75F WCI  30
SAWYER-GWINN   MIX PCPN  32  25  75 S14       29.65F WCI  22
$$
MIZ001>003-009>011-084-240600-
WESTERN UPPER MICHIGAN

CITY           SKY/WX    TMP DP  RH WIND       PRES   REMARKS
IRON MOUNTAIN  LGT RAIN  35  23  61 S7        29.65F WCI  29
HOUGHTON       CLOUDY    33  25  72 S7        29.55F WCI  27
COPPER HARBOR    N/A     39  27  62 VRB6      29.57F WCI  35
IRONWOOD       CLOUDY    38  25  59 SW12      29.55F WCI  30
$$

ABBREVIATIONS USED IN REMARKS
   TC - TEMPERATURE IN CELSIUS
  WCI - WIND CHILL INDEX
   HX - HEAT INDEX
  VSB - VISIBILITY




USA.gov is the U.S. government's official web portal to all federal, state and local government web resources and services.